CDT,Max TemperatureF,Mean TemperatureF,Min TemperatureF,Max Dew PointF,MeanDew PointF,Min DewpointF,Max Humidity, Mean Humidity, Min Humidity, Max Sea Level PressureIn, Mean Sea Level PressureIn, Min Sea Level PressureIn, Max VisibilityMiles, Mean VisibilityMiles, Min VisibilityMiles, Max Wind SpeedMPH, Mean Wind SpeedMPH, Max Gust SpeedMPH,PrecipitationIn, CloudCover, Events, WindDirDegrees
2012-10-1,64,53,42,46,39,32,82,58,30,30.04,29.98,29.91,10,10,7,17,9,24,0.00,1,,296
2012-10-2,73,58,42,43,35,32,66,43,25,29.93,29.75,29.62,10,9,2,24,9,39,0.00,0,,198
2012-10-3,55,48,41,45,40,37,87,77,58,30.08,29.94,29.75,10,10,7,21,8,26,0.04,3,Rain,311
2012-10-4,42,38,33,39,31,28,93,83,81,30.05,29.88,29.77,10,4,0,25,19,39,0.81,8,Rain-Snow-Thunderstorm,328
2012-10-5,35,34,32,30,29,28,87,85,81,30.24,30.04,29.92,10,6,1,23,17,33,0.00,7,Snow,312
2012-10-6,39,32,26,32,28,21,93,80,65,30.30,30.23,30.06,10,10,10,14,8,17,0.00,0,,263
2012-10-7,44,37,30,36,30,25,87,74,61,30.05,29.86,29.72,10,10,10,13,7,18,0.00,3,,216
2012-10-8,42,37,32,37,34,28,93,86,81,29.72,29.58,29.50,10,9,4,8,1,,0.21,7,Rain,316
2012-10-9,39,34,30,36,31,27,93,84,75,29.93,29.75,29.56,10,9,2,18,7,28,0.04,7,Rain-Snow,298
2012-10-10,42,35,28,34,29,25,87,80,65,29.95,29.92,29.88,10,9,0,14,6,21,0.00,6,Fog,240
2012-10-11,41,32,24,30,25,21,87,74,56,30.35,30.14,29.92,10,10,10,16,9,24,0.00,3,,290
2012-10-12,44,34,23,27,24,19,86,69,43,30.36,30.18,29.86,10,10,10,16,5,23,0.00,2,,172
2012-10-13,55,44,33,41,32,23,76,65,54,29.86,29.73,29.67,10,10,10,10,7,,0.00,0,,162
2012-10-14,53,42,30,36,32,27,93,75,44,29.91,29.88,29.83,10,10,10,10,5,,0.00,0,,301
2012-10-15,55,40,26,45,36,23,93,77,62,29.89,29.76,29.53,10,10,10,13,4,20,0.00,1,Rain,167
2012-10-16,62,50,37,48,43,34,87,76,59,29.53,29.43,29.29,10,10,7,10,3,,0.00,0,,119
2012-10-17,51,48,46,46,45,43,93,87,76,29.29,29.14,29.04,10,7,1,14,7,17,0.48,6,Rain,93
2012-10-18,51,46,42,46,43,37,93,87,81,29.61,29.34,29.12,10,8,2,20,12,29,0.67,8,Rain,1
2012-10-19,42,40,39,39,37,36,93,85,81,29.73,29.70,29.62,10,8,2,18,9,25,0.05,8,Rain,343
2012-10-20,48,44,41,45,40,37,87,84,81,29.73,29.69,29.65,10,10,7,12,3,16,0.00,7,Rain,164
2012-10-21,51,44,37,46,42,34,93,87,81,30.06,29.84,29.69,10,9,2,14,6,17,0.04,5,Rain,237
2012-10-22,44,36,28,39,35,25,87,83,76,30.15,30.10,30.02,10,10,3,14,6,21,0.00,2,Rain,34
2012-10-23,50,47,44,46,42,39,93,86,81,30.01,29.79,29.66,10,7,1,20,12,24,0.76,8,Rain-Thunderstorm,104
2012-10-24,50,42,35,46,37,28,93,85,75,29.97,29.88,29.69,10,10,4,14,9,18,0.00,8,,270
2012-10-25,37,34,30,30,28,27,87,81,65,29.96,29.90,29.84,10,10,0,18,7,26,0.00,6,Rain-Snow,270
2012-10-26,33,30,26,28,23,19,87,75,60,30.21,30.12,29.94,10,10,2,18,12,25,0.00,7,Snow,257
2012-10-27,30,24,17,21,18,14,86,72,55,30.33,30.26,30.19,10,10,4,14,7,17,0.00,6,,249
2012-10-28,32,24,15,19,17,10,93,71,55,30.34,30.32,30.30,10,10,7,12,3,,0.00,3,,55
2012-10-29,42,35,28,36,28,18,93,78,64,30.31,30.26,30.22,10,10,7,15,11,18,0.00,5,Rain,110
2012-10-30,44,36,28,34,29,25,87,77,61,30.25,30.20,30.12,10,10,10,12,7,,0.00,0,,112
2012-10-31,39,32,26,34,28,21,93,81,70,30.12,30.03,29.95,10,10,5,13,4,25,0.00,6,Rain,86